Home   Weather   Township of Washington   Past weeks
Flag for USA

Past Weather in Township of Washington, Arkansas, USA — Yesterday and Last 2 Weeks

Now
54 °F

Fog.


Feels Like: 51 °F
Forecast: 61 / 47 °F
Wind: 9 mph from South

Location: Texarkana Regional-Webb Field

Current Time: Jan 17, 2019 at 7:11:56 am

Latest Report: Jan 17, 2019 at 5:53 am


Visibility: 3 mi

Pressure: 30.02 "Hg

Humidity: 100%

Dew Point: 54 °F

Location of Township of WashingtonLocation

Past Weather in Township of Washington — Graph

°F

Township of Washington Temperature Yesterday

Maximum temperature yesterday: 53 °F (at 9:53 pm)
Minimum temperature yesterday: 44 °F (at 12:53 am)
Average temperature yesterday: 49 °F

High & Low Weather Summary for the Past Weeks

 TemperatureHumidityPressure
High67 °F (Jan 6, 3:53 pm)100% (Jan 2, 5:53 am)30.56 "Hg (Jan 2, 5:53 am)
Low30 °F (Jan 10, 7:53 am)28% (Jan 9, 11:53 am)29.82 "Hg (Jan 4, 2:53 am)
Average46 °F83%30.16 "Hg
* Reported Jan 2 5:53 am — Jan 17 5:53 am, Township of Washington. Weather by CustomWeather, © 2019

Note: Actual official high and low records may vary slightly from our data, if they occured in-between our weather recording intervals... More about our weather records

Advertising

Township of Washington Weather History for the Previous 24 Hours

Scroll right to see more
 ConditionsComfort  
Time TempWeatherWind HumidityBarometerVisibility
5:53 am
Thu, Jan 17
54 °FFog.9 mph100%30.02 "Hg3 mi
5:41 am53 °FFog.10 mph100%30.02 "Hg3 mi
4:53 am53 °FFog.9 mph100%30.03 "Hg2 mi
4:33 am53 °FFog.10 mph100%30.04 "Hg2 mi
4:19 am53 °FFog.8 mph100%30.05 "Hg3 mi
3:53 am53 °FFog.10 mph100%30.05 "Hg4 mi
2:53 am53 °FFog.10 mph100%30.07 "Hg4 mi
1:53 am53 °FLow clouds.9 mph96%30.09 "Hg9 mi
12:53 am52 °FLow clouds.12 mph100%30.09 "Hg8 mi
11:53 pm
Wed, Jan 16
52 °FLight rain. Fog.10 mph100%30.11 "Hg5 mi
11:28 pm52 °FLight rain. Fog.10 mph100%30.12 "Hg5 mi
10:53 pm52 °FOvercast.10 mph97%30.13 "Hg7 mi
10:17 pm53 °FMostly cloudy.10 mph93%30.13 "Hg9 mi
9:53 pm53 °FMostly cloudy.10 mph93%30.12 "Hg10 mi
8:53 pm52 °FMostly cloudy.9 mph97%30.13 "Hg10 mi
7:53 pm51 °FOvercast.3 mph96%30.14 "Hg7 mi
6:53 pm51 °FOvercast.No wind96%30.14 "Hg10 mi
5:53 pm51 °FOvercast.No wind96%30.13 "Hg9 mi
5:20 pm51 °FOvercast.5 mph96%30.13 "Hg7 mi
4:53 pm51 °FFog.No wind100%30.14 "Hg6 mi
3:53 pm51 °FFog.6 mph100%30.15 "Hg4 mi
3:38 pm51 °FFog.7 mph100%30.16 "Hg3 mi
2:53 pm50 °FFog.12 mph100%30.16 "Hg2 mi
2:21 pm50 °FFog.7 mph100%30.18 "Hg2 mi
2:04 pm50 °FFog.7 mph100%30.18 "Hg2 mi
1:53 pm50 °FFog.6 mph100%30.18 "Hg2 mi
1:34 pm50 °FFog.5 mph100%30.19 "Hg2 mi
1:11 pm50 °FFog.6 mph100%30.21 "Hg1 mi
12:53 pm49 °FFog.6 mph100%30.21 "Hg1 mi
12:38 pm49 °FFog.6 mph100%30.23 "Hg2 mi
12:01 pm49 °FFog.8 mph97%30.25 "Hg3 mi
11:22 am49 °FMostly cloudy.6 mph90%30.27 "Hg9 mi
10:53 am49 °FOvercast.8 mph86%30.28 "Hg9 mi
10:09 am48 °FMostly cloudy.8 mph86%30.29 "Hg10 mi
9:53 am48 °FOvercast.7 mph86%30.29 "Hg10 mi
8:53 am46 °FOvercast.7 mph86%30.28 "Hg10 mi
7:53 am45 °FOvercast.5 mph90%30.27 "Hg10 mi
Weather by CustomWeather, © 2019

See weather overview